This is the latest recevied weather packets stored in our database for station/object KC5TIL-3. If no packets are shown the sender has not sent any weather packets the latest 10 day(s).
| Time | Temp. | Humidity | Pressure | Rain* | Wind** | Luminosity | Snow |
|---|---|---|---|---|---|---|---|
| 1787729995 | 30.56° C | 18% | 1010.8 hPa | 0 mm | 3.13 m/s, 202° | - | - |
| 1787729697 | 30.56° C | 18% | 1010.8 hPa | 0 mm | 3.13 m/s, 216° | - | - |
| 1787729399 | 30.56° C | 18% | 1011.8 hPa | 0 mm | 2.68 m/s, 203° | - | - |
| 1787729097 | 30.56° C | 18% | 1011.8 hPa | 0 mm | 3.58 m/s, 209° | - | - |
| 1787728799 | 30.56° C | 18% | 1011.8 hPa | 0 mm | 2.68 m/s, 228° | - | - |
| 1787728501 | 30.56° C | 18% | 1011.8 hPa | 0 mm | 3.13 m/s, 211° | - | - |
| 1787728199 | 30.56° C | 18% | 1011.8 hPa | 0 mm | 2.68 m/s, 211° | - | - |
| 1787727901 | 30.56° C | 18% | 1011.8 hPa | 0 mm | 3.13 m/s, 212° | - | - |
| 1787727599 | 31.11° C | 18% | 1011.8 hPa | 0 mm | 2.24 m/s, 219° | - | - |
| 1787727297 | 31.11° C | 18% | 1011.8 hPa | 0 mm | 2.68 m/s, 214° | - | - |
| 1787726999 | 31.11° C | 18% | 1011.8 hPa | 0 mm | 2.68 m/s, 195° | - | - |
| 1787726701 | 31.11° C | 18% | 1011.8 hPa | 0 mm | 3.13 m/s, 215° | - | - |
| 1787726400 | 31.11° C | 18% | 1011.8 hPa | 0 mm | 2.68 m/s, 218° | - | - |
| 1787726101 | 31.11° C | 18% | 1011.8 hPa | 0 mm | 2.24 m/s, 214° | - | - |
| 1787725803 | 31.11° C | 18% | 1011.8 hPa | 0 mm | 4.02 m/s, 202° | - | - |
| 1787725502 | 31.11° C | 18% | 1011.8 hPa | 0 mm | 4.02 m/s, 222° | - | - |
| 1787725204 | 31.11° C | 18% | 1011.8 hPa | 0 mm | 2.24 m/s, 201° | - | - |
| 1787724905 | 31.67° C | 15% | 1011.8 hPa | 0 mm | 3.13 m/s, 191° | - | - |
| 1787724604 | 31.67° C | 15% | 1011.8 hPa | 0 mm | 3.13 m/s, 221° | - | - |
| 1787724306 | 31.67° C | 15% | 1011.8 hPa | 0 mm | 2.68 m/s, 215° | - | - |
| 1787724008 | 31.67° C | 15% | 1011.8 hPa | 0 mm | 3.13 m/s, 225° | - | - |
| 1787723706 | 31.67° C | 15% | 1011.8 hPa | 0 mm | 3.58 m/s, 200° | - | - |
| 1787723408 | 31.67° C | 15% | 1011.8 hPa | 0 mm | 3.58 m/s, 187° | - | - |
| 1787723110 | 32.22° C | 15% | 1011.8 hPa | 0 mm | 3.13 m/s, 218° | - | - |
| 1787722809 | 32.22° C | 15% | 1011.8 hPa | 0 mm | 3.13 m/s, 198° | - | - |
* Rain latest hour (hover to see other rain measurements)
** Current wind speed in m/s (hover to see current wind gust speed)